Regional Weather Roundup
Issued by NWS

Home | Current Version | Previous Version | Text Only | Print | Product List | Glossary Off
Versions: 1 2 3 4 5 6 7 8 9 10 11 12 13 14 15 16 17 18 19 20 21 22 23 24 25 26 27 28 29 30 31 32 33 34 35 36 37 38 39 40 41 42 43 44 45 46 47 48 49 50

353
ASUS43 KFSD 221410
RWRSD

WEATHER ROUNDUP FOR SOUTH DAKOTA
NATIONAL WEATHER SERVICE SIOUX FALLS SD
900 AM CDT FRI SEP 22 2017

NOTE: "FAIR" INDICATES FEW OR NO CLOUDS BELOW 12,000 FEET WITH NO
SIGNIFICANT WEATHER AND/OR OBSTRUCTIONS TO VISIBILITY.


SDZ001>005-009-010-012>017-221500-
NORTHWEST AND NORTH CENTRAL SOUTH DAKOTA

CITY           SKY/WX    TMP DP  RH WIND       PRES   REMARKS
BUFFALO          N/A     51  37  58 N18       29.78S
FAITH            N/A     51  48  89 N25       29.71S
MOBRIDGE       CLOUDY    63  56  78 NE18G25   29.62F
$$

SDZ012>016-024>037-041>051-057-063-072>074-221500-
SOUTHWEST AND SOUTH CENTRAL SOUTH DAKOTA

CITY           SKY/WX    TMP DP  RH WIND       PRES   REMARKS
RAPID CTY ARPT CLOUDY    52  39  62 N20G28    29.79R
PIERRE         MOSUNNY   63  58  83 SW7       29.59R
CUSTER         SUNNY     49  42  77 N5        29.81S
ELLSWORTH AFB  CLOUDY    52  40  63 N17G25    29.79R
PHILIP         LGT RAIN  56  49  77 NW18G26   29.68R
PINE RIDGE     CLOUDY    53  42  66 NW10      29.78R
SPEARFISH      CLOUDY    48  37  66 NW8       29.86S
WINNER         FAIR      65  55  70 W12       29.64R
$$

SDZ004>011-016>023-039-040-221500-
NORTHEAST SOUTH DAKOTA

CITY           SKY/WX    TMP DP  RH WIND       PRES   REMARKS
ABERDEEN       SUNNY     68  66  93 NE6       29.65F
WATERTOWN      SUNNY     73  72  96 S13       29.71R
BROOKINGS      MOSUNNY   75  71  87 S12G22    29.73F
SISSETON         N/A     71  71 100 CALM      29.71S
$$

SDZ017-020-022-023-036>040-048>070-221500-
SOUTHEAST SOUTH DAKOTA

CITY           SKY/WX    TMP DP  RH WIND       PRES   REMARKS
SIOUX FALLS    MOSUNNY   78  72  81 S18G30    29.73S
HURON          SUNNY     76  71  85 SE14G24   29.64R
CHAMBERLAIN    SUNNY     79  71  75 SE12      29.61F
MITCHELL       SUNNY     79  71  76 S10       29.66R
YANKTON        MOSUNNY   77  70  79 S16G24    29.70S
$$

ABBREVIATIONS USED IN REMARKS
   TC - TEMPERATURE IN CELSIUS
  WCI - WIND CHILL INDEX
   HX - HEAT INDEX
  VSB - VISIBILITY





USA.gov is the U.S. government's official web portal to all federal, state and local government web resources and services.